Zurück zum Katalog

DELTA 1 DEB

AktivPO
NORAD 7940·DEBRIS·🇺🇸 United States

Gestartet Jul 23, 1972 von Vandenberg Space Force Base

Loading…

Nächste Überflüge (nächste 24 Stunden)

TLE

AktuellSource: Space-Track

Epoche: Sep 14, 2026, 11:49 UTC

1 07940U 72058CF  26257.49261346  .00000688  00000-0  26461-3 0  9993
2 07940  97.9758 274.8616 0319832 359.7334   0.3620 14.08667884733579

Verfolge DELTA 1 DEB in Echtzeit mit AllMySat

Download on the App Store